contact:dominique.lefevre@mio.osupytheas.fr, maurice.libes@osupytheas.fr, didier.mallarino@osupytheas.fr
Project:EMSO http://www.emso-fr.org/EMSO-France
Depth: 2436.0 m
Title:EMSO Ligure Ouest : Data MII capteur AQUADOPP
Date,Latitude,Longitude,X_East,Y_North,Z_Up,Amplitude_X,Amplitude_Y,Amplitude_Z,Batterie,SoundSpeed,Heading,Pitch,Roll,Pressure,TIS,Speed,Direction
, degrees North, degrees East, m.s-1, m.s-1,m.s-1, 1, 1, 1, Volt, m.s-1, degree, degree, degree, dbar, degree_C, m.s-1, degree
2022-12-16T00:04:03,42.805,6.029,0.013,-0.039,-0.016,101.0,101.0,101.0,13.4,1505.2,336.2,-0.7,1.8,2471.255,13.28,0.041,161.6
2022-12-16T00:07:03,42.805,6.029,0.022,-0.024,0.013,100.0,101.0,102.0,13.4,1505.2,321.6,-0.8,1.8,2471.271,13.28,0.032,137.5
2022-12-16T00:10:03,42.805,6.029,0.012,-0.037,-0.015,102.0,101.0,102.0,13.3,1505.2,319.7,-0.7,1.8,2471.204,13.28,0.038,162.0
2022-12-16T00:13:03,42.805,6.029,0.002,-0.008,0.012,103.0,101.0,102.0,13.3,1505.2,322.4,-0.8,1.8,2471.195,13.28,0.008,166.0
2022-12-16T00:16:03,42.805,6.029,-0.004,0.0,0.054,102.0,103.0,101.0,13.4,1505.2,321.7,-0.7,1.8,2471.227,13.28,0.004,270.0
2022-12-16T00:19:03,42.805,6.029,0.016,-0.016,0.038,102.0,102.0,101.0,13.3,1505.2,326.3,-0.7,1.8,2471.19,13.29,0.022,135.0
2022-12-16T00:22:03,42.805,6.029,0.025,-0.035,-0.028,100.0,102.0,102.0,13.4,1505.2,317.5,-0.8,1.8,2471.259,13.29,0.043,144.5
2022-12-16T00:25:03,42.805,6.029,0.003,-0.039,-0.015,101.0,102.0,101.0,13.4,1505.2,322.6,-0.8,1.9,2471.212,13.29,0.039,175.6
2022-12-16T00:28:03,42.805,6.029,0.008,-0.025,0.0,101.0,101.0,102.0,13.4,1505.2,318.5,-0.8,1.8,2471.249,13.29,0.026,162.3
2022-12-16T00:31:03,42.805,6.029,0.007,-0.024,0.007,102.0,102.0,101.0,13.3,1505.2,323.2,-0.8,1.8,2471.216,13.29,0.025,163.7
2022-12-16T00:34:03,42.805,6.029,0.038,-0.023,0.035,101.0,102.0,102.0,13.3,1505.2,329.6,-0.7,1.8,2471.167,13.29,0.044,121.2
2022-12-16T00:37:03,42.805,6.029,-0.004,-0.009,0.003,101.0,101.0,102.0,13.4,1505.2,326.7,-0.8,1.8,2471.173,13.29,0.009,204.0
2022-12-16T00:40:03,42.805,6.029,0.038,-0.034,0.017,102.0,101.0,102.0,13.4,1505.2,320.6,-0.8,1.8,2471.207,13.29,0.05,131.8
2022-12-16T00:43:03,42.805,6.029,0.021,-0.021,0.023,102.0,100.0,102.0,13.4,1505.2,321.2,-0.8,1.8,2471.225,13.29,0.029,135.0
2022-12-16T00:46:03,42.805,6.029,0.013,-0.003,0.012,102.0,102.0,101.0,13.3,1505.2,322.9,-0.8,1.8,2471.211,13.29,0.013,103.0
2022-12-16T00:49:03,42.805,6.029,0.012,-0.032,-0.001,102.0,102.0,101.0,13.3,1505.2,334.1,-0.8,1.8,2471.193,13.29,0.034,159.4
2022-12-16T00:52:03,42.805,6.029,0.042,-0.035,-0.021,102.0,103.0,101.0,13.3,1505.2,318.8,-0.8,1.8,2471.234,13.29,0.054,129.8
2022-12-16T00:55:03,42.805,6.029,-0.006,-0.021,-0.015,102.0,101.0,102.0,13.3,1505.2,328.7,-0.8,1.8,2471.19,13.29,0.021,195.9
2022-12-16T00:58:03,42.805,6.029,0.016,-0.017,0.033,102.0,101.0,102.0,13.4,1505.2,330.6,-0.8,1.8,2471.221,13.29,0.023,136.7
2022-12-16T01:04:03,42.805,6.029,-0.023,-0.054,-0.015,103.0,103.0,103.0,13.4,1505.2,331.6,-0.8,1.8,2471.22,13.28,0.058,203.1
2022-12-16T01:07:03,42.805,6.029,0.021,-0.026,0.035,102.0,102.0,101.0,13.4,1505.2,319.6,-0.8,1.8,2471.217,13.28,0.033,141.1
2022-12-16T01:10:03,42.805,6.029,0.014,-0.023,0.021,104.0,101.0,101.0,13.4,1505.2,334.4,-0.8,1.8,2471.224,13.28,0.026,148.7
2022-12-16T01:13:03,42.805,6.029,0.016,-0.035,-0.009,100.0,102.0,102.0,13.4,1505.2,328.6,-0.8,1.8,2471.219,13.28,0.038,155.4
2022-12-16T01:16:03,42.805,6.029,0.014,-0.033,0.0,103.0,101.0,102.0,13.4,1505.2,330.8,-0.8,1.8,2471.235,13.28,0.035,157.0
2022-12-16T01:19:03,42.805,6.029,0.0,-0.027,-0.006,100.0,104.0,102.0,13.4,1505.2,320.5,-0.8,1.8,2471.249,13.29,0.026,180.0
2022-12-16T01:22:03,42.805,6.029,0.017,-0.033,0.015,103.0,102.0,101.0,13.4,1505.2,327.2,-0.8,1.8,2471.215,13.29,0.037,152.7
2022-12-16T01:25:03,42.805,6.029,0.036,-0.035,-0.024,101.0,102.0,102.0,13.4,1505.2,319.0,-0.8,1.9,2471.211,13.29,0.05,134.2
2022-12-16T01:28:03,42.805,6.029,0.038,-0.018,0.022,102.0,101.0,102.0,13.4,1505.2,330.5,-0.8,1.8,2471.179,13.29,0.042,115.3
2022-12-16T01:31:03,42.805,6.029,0.008,-0.01,0.013,102.0,102.0,102.0,13.4,1505.2,334.5,-0.7,1.8,2471.212,13.29,0.012,141.3
2022-12-16T01:34:03,42.805,6.029,0.022,-0.015,0.015,102.0,102.0,102.0,13.3,1505.2,318.5,-0.8,1.8,2471.211,13.29,0.026,124.3
2022-12-16T01:37:03,42.805,6.029,0.005,-0.014,0.037,102.0,101.0,101.0,13.3,1505.2,320.6,-0.8,1.8,2471.219,13.29,0.014,160.4
2022-12-16T01:40:03,42.805,6.029,0.0,-0.035,-0.009,102.0,102.0,102.0,13.3,1505.2,334.5,-0.8,1.8,2471.217,13.29,0.035,180.0
2022-12-16T01:43:03,42.805,6.029,0.018,-0.044,0.002,102.0,102.0,102.0,13.4,1505.2,335.9,-0.8,1.8,2471.214,13.29,0.047,157.8
2022-12-16T01:46:03,42.805,6.029,0.019,-0.017,0.032,101.0,103.0,102.0,13.3,1505.2,326.9,-0.8,1.8,2471.221,13.29,0.025,131.8
2022-12-16T01:49:03,42.805,6.029,0.003,-0.027,0.023,102.0,102.0,102.0,13.3,1505.2,327.4,-0.8,1.8,2471.204,13.29,0.027,173.7
2022-12-16T01:52:03,42.805,6.029,0.016,-0.021,0.014,102.0,103.0,102.0,13.4,1505.2,325.3,-0.8,1.8,2471.173,13.29,0.026,142.7
2022-12-16T01:55:03,42.805,6.029,0.004,-0.033,0.014,103.0,102.0,102.0,13.3,1505.2,335.2,-0.8,1.8,2471.23,13.29,0.033,173.1
2022-12-16T01:58:03,42.805,6.029,-0.025,-0.016,-0.002,101.0,102.0,102.0,13.3,1505.2,322.0,-0.8,1.8,2471.236,13.29,0.029,237.4
2022-12-16T02:04:03,42.805,6.029,0.001,-0.03,-0.018,102.0,102.0,101.0,13.4,1505.2,325.4,-0.8,1.8,2471.249,13.28,0.03,178.1
2022-12-16T02:07:03,42.805,6.029,0.024,-0.05,0.004,102.0,102.0,101.0,13.4,1505.2,327.7,-0.8,1.8,2471.209,13.28,0.055,154.4
2022-12-16T02:10:03,42.805,6.029,0.016,-0.015,0.042,102.0,102.0,102.0,13.4,1505.2,321.5,-0.7,1.9,2471.193,13.28,0.021,133.1
2022-12-16T02:13:03,42.805,6.029,0.014,-0.02,-0.01,102.0,102.0,101.0,13.4,1505.2,326.9,-0.8,1.8,2471.226,13.28,0.024,145.0
2022-12-16T02:16:03,42.805,6.029,0.027,-0.023,0.006,102.0,102.0,101.0,13.4,1505.2,323.8,-0.8,1.8,2471.239,13.28,0.035,130.4
2022-12-16T02:19:03,42.805,6.029,0.024,-0.016,0.034,102.0,102.0,101.0,13.3,1505.2,323.2,-0.7,1.8,2471.232,13.28,0.028,123.7
2022-12-16T02:22:03,42.805,6.029,0.022,-0.053,-0.001,101.0,102.0,102.0,13.4,1505.2,324.9,-0.8,1.8,2471.23,13.29,0.057,157.5
2022-12-16T02:25:03,42.805,6.029,0.011,-0.026,0.017,101.0,102.0,102.0,13.4,1505.2,327.9,-0.8,1.8,2471.19,13.29,0.028,157.1
2022-12-16T02:28:03,42.805,6.029,0.032,-0.028,-0.005,102.0,102.0,102.0,13.3,1505.2,322.8,-0.7,1.8,2471.168,13.29,0.042,131.2
2022-12-16T02:31:03,42.805,6.029,0.019,-0.016,0.026,103.0,101.0,102.0,13.4,1505.2,317.5,-0.8,1.9,2471.203,13.29,0.024,130.1
2022-12-16T02:34:03,42.805,6.029,-0.022,0.0,0.003,101.0,105.0,101.0,13.4,1505.2,334.8,-0.7,1.8,2471.152,13.29,0.022,270.0
2022-12-16T02:37:03,42.805,6.029,0.028,-0.033,0.002,101.0,101.0,101.0,13.4,1505.2,325.1,-0.7,1.8,2471.2,13.29,0.043,139.7
2022-12-16T02:40:03,42.805,6.029,0.022,-0.04,-0.01,101.0,101.0,102.0,13.4,1505.2,334.5,-0.8,1.8,2471.186,13.29,0.045,151.2
2022-12-16T02:43:03,42.805,6.029,0.018,-0.018,0.028,101.0,102.0,101.0,13.4,1505.2,319.7,-0.8,1.8,2471.198,13.29,0.025,135.0
2022-12-16T02:46:03,42.805,6.029,0.024,-0.031,0.004,101.0,102.0,101.0,13.3,1505.2,320.2,-0.8,1.8,2471.198,13.29,0.039,142.3
2022-12-16T02:49:03,42.805,6.029,0.009,-0.028,0.008,102.0,102.0,101.0,13.4,1505.2,324.1,-0.7,1.8,2471.196,13.29,0.029,162.2
2022-12-16T02:52:03,42.805,6.029,0.007,-0.022,0.018,101.0,101.0,101.0,13.4,1505.2,334.8,-0.8,1.8,2471.188,13.29,0.023,162.4
2022-12-16T02:55:03,42.805,6.029,0.021,-0.016,0.025,101.0,101.0,102.0,13.4,1505.2,322.1,-0.8,1.8,2471.199,13.29,0.026,127.3
2022-12-16T02:58:03,42.805,6.029,0.002,-0.017,0.023,102.0,101.0,101.0,13.4,1505.2,330.1,-0.8,1.8,2471.171,13.29,0.017,173.3
2022-12-16T03:04:03,42.805,6.029,0.04,-0.039,0.025,102.0,101.0,100.0,13.4,1505.2,328.1,-0.7,1.9,2471.166,13.28,0.055,134.3
2022-12-16T03:07:03,42.805,6.029,0.005,-0.024,0.021,101.0,101.0,101.0,13.3,1505.2,329.0,-0.8,1.8,2471.24,13.28,0.024,168.2
2022-12-16T03:10:03,42.805,6.029,0.01,-0.021,-0.009,101.0,100.0,101.0,13.4,1505.2,320.8,-0.8,1.8,2471.178,13.28,0.023,154.5
2022-12-16T03:13:03,42.805,6.029,0.0,-0.023,0.012,101.0,101.0,101.0,13.4,1505.2,323.5,-0.8,1.8,2471.185,13.28,0.023,180.0
2022-12-16T03:16:03,42.805,6.029,0.009,-0.025,0.016,101.0,100.0,101.0,13.4,1505.2,326.7,-0.8,1.8,2471.221,13.28,0.026,160.2
2022-12-16T03:19:03,42.805,6.029,0.016,-0.036,0.014,100.0,101.0,101.0,13.4,1505.2,318.0,-0.8,1.8,2471.197,13.29,0.039,156.0
2022-12-16T03:22:03,42.805,6.029,0.001,-0.019,0.018,101.0,99.0,102.0,13.3,1505.2,326.3,-0.7,1.8,2471.18,13.29,0.019,177.0
2022-12-16T03:25:03,42.805,6.029,0.025,-0.037,0.013,102.0,100.0,101.0,13.4,1505.2,330.4,-0.7,1.8,2471.201,13.29,0.044,146.0
2022-12-16T03:28:03,42.805,6.029,0.021,-0.007,0.043,102.0,101.0,100.0,13.4,1505.2,327.9,-0.8,1.8,2471.203,13.29,0.022,108.4
2022-12-16T03:31:03,42.805,6.029,0.006,-0.033,-0.006,102.0,102.0,100.0,13.3,1505.2,332.0,-0.8,1.8,2471.18,13.29,0.033,169.7
2022-12-16T03:34:03,42.805,6.029,0.009,-0.024,0.018,101.0,102.0,101.0,13.4,1505.2,320.8,-0.8,1.8,2471.204,13.29,0.025,159.4
2022-12-16T03:37:03,42.805,6.029,0.015,-0.032,0.023,100.0,103.0,101.0,13.4,1505.2,317.5,-0.8,1.8,2471.185,13.29,0.035,154.9
2022-12-16T03:40:03,42.805,6.029,0.017,-0.018,0.031,100.0,101.0,101.0,13.4,1505.2,318.7,-0.8,1.8,2471.197,13.29,0.024,136.6
2022-12-16T03:43:03,42.805,6.029,0.061,-0.039,0.01,101.0,99.0,101.0,13.4,1505.2,322.1,-0.8,1.8,2471.194,13.29,0.072,122.6
2022-12-16T03:46:03,42.805,6.029,0.003,-0.043,0.01,101.0,102.0,101.0,13.4,1505.2,333.7,-0.8,1.8,2471.222,13.29,0.043,176.0
2022-12-16T03:49:03,42.805,6.029,0.024,-0.055,-0.022,101.0,101.0,101.0,13.4,1505.2,322.5,-0.8,1.8,2471.196,13.29,0.06,156.4
2022-12-16T03:52:03,42.805,6.029,0.018,-0.03,0.004,101.0,101.0,101.0,13.3,1505.2,328.6,-0.8,1.8,2471.163,13.29,0.034,149.0
2022-12-16T03:55:03,42.805,6.029,0.024,-0.032,0.017,101.0,101.0,101.0,13.3,1505.2,318.1,-0.8,1.9,2471.181,13.29,0.04,143.1
2022-12-16T03:58:03,42.805,6.029,0.01,-0.023,0.011,101.0,101.0,101.0,13.4,1505.2,324.4,-0.8,1.8,2471.181,13.29,0.025,156.5
2022-12-16T04:04:03,42.805,6.029,0.008,-0.021,-0.007,102.0,101.0,101.0,13.4,1505.2,324.1,-0.8,1.8,2471.193,13.28,0.022,159.1
2022-12-16T04:07:03,42.805,6.029,0.006,-0.02,0.007,101.0,101.0,102.0,13.4,1505.2,329.2,-0.8,1.8,2471.204,13.28,0.02,163.3
2022-12-16T04:10:03,42.805,6.029,0.003,-0.025,0.001,101.0,102.0,100.0,13.4,1505.2,323.2,-0.8,1.8,2471.202,13.28,0.025,173.2
2022-12-16T04:13:03,42.805,6.029,0.0,-0.006,0.004,101.0,102.0,101.0,13.3,1505.2,337.8,-0.7,1.8,2471.216,13.28,0.006,180.0
2022-12-16T04:16:03,42.805,6.029,-0.02,-0.021,-0.017,101.0,101.0,101.0,13.3,1505.2,329.3,-0.7,1.8,2471.189,13.28,0.028,223.6
2022-12-16T04:19:03,42.805,6.029,0.043,-0.015,0.027,101.0,101.0,101.0,13.4,1505.2,315.9,-0.8,1.8,2471.18,13.28,0.045,109.2
2022-12-16T04:22:03,42.805,6.029,0.021,-0.019,0.037,103.0,100.0,102.0,13.4,1505.2,332.0,-0.8,1.8,2471.151,13.29,0.028,132.1
2022-12-16T04:25:03,42.805,6.029,-0.022,-0.033,-0.001,101.0,101.0,101.0,13.4,1505.2,335.6,-0.7,1.8,2471.178,13.28,0.039,213.7
2022-12-16T04:28:03,42.805,6.029,0.018,-0.032,0.027,101.0,101.0,101.0,13.3,1505.2,318.8,-0.8,1.8,2471.156,13.29,0.036,150.6
2022-12-16T04:31:03,42.805,6.029,-0.019,-0.018,-0.001,101.0,101.0,101.0,13.4,1505.2,327.2,-0.7,1.8,2471.147,13.29,0.026,226.5
2022-12-16T04:34:03,42.805,6.029,0.024,-0.037,-0.007,101.0,101.0,102.0,13.4,1505.2,328.2,-0.7,1.8,2471.111,13.29,0.044,147.0
2022-12-16T04:37:03,42.805,6.029,0.021,-0.026,0.016,102.0,102.0,101.0,13.3,1505.2,332.6,-0.7,1.8,2471.187,13.29,0.033,141.1
2022-12-16T04:40:03,42.805,6.029,0.015,-0.036,-0.008,101.0,101.0,101.0,13.4,1505.2,328.6,-0.7,1.8,2471.151,13.29,0.039,157.4
2022-12-16T04:43:03,42.805,6.029,0.001,-0.016,0.022,100.0,102.0,102.0,13.4,1505.2,336.6,-0.8,1.8,2471.204,13.29,0.016,176.4
2022-12-16T04:46:03,42.805,6.029,0.0,0.001,0.034,101.0,102.0,102.0,13.3,1505.2,326.3,-0.8,1.8,2471.152,13.29,0.001,0.0
2022-12-16T04:49:03,42.805,6.029,0.02,-0.038,0.006,101.0,102.0,101.0,13.4,1505.2,324.5,-0.8,1.8,2471.152,13.29,0.042,152.2
2022-12-16T04:52:03,42.805,6.029,0.031,-0.041,-0.002,101.0,103.0,102.0,13.4,1505.2,320.7,-0.8,1.8,2471.149,13.29,0.051,142.9
2022-12-16T04:55:03,42.805,6.029,0.002,-0.016,0.019,101.0,102.0,101.0,13.4,1505.2,331.9,-0.8,1.8,2471.178,13.29,0.016,172.9
2022-12-16T04:58:03,42.805,6.029,0.029,-0.024,-0.014,101.0,101.0,101.0,13.3,1505.2,317.0,-0.7,1.8,2471.131,13.29,0.037,129.6
2022-12-16T05:04:03,42.805,6.029,0.021,-0.046,0.018,100.0,102.0,101.0,13.4,1505.2,318.8,-0.8,1.8,2471.188,13.28,0.05,155.5
2022-12-16T05:07:03,42.805,6.029,0.023,-0.036,0.043,101.0,102.0,101.0,13.4,1505.2,323.7,-0.8,1.8,2471.159,13.28,0.042,147.4
2022-12-16T05:10:03,42.805,6.029,0.043,-0.03,0.025,101.0,102.0,102.0,13.4,1505.2,328.1,-0.8,1.8,2471.16,13.28,0.052,124.9
2022-12-16T05:13:03,42.805,6.029,0.029,-0.028,0.028,102.0,102.0,102.0,13.4,1505.2,324.7,-0.8,1.8,2471.157,13.28,0.04,134.0
2022-12-16T05:16:03,42.805,6.029,0.015,-0.035,0.004,102.0,102.0,101.0,13.3,1505.2,327.1,-0.8,1.8,2471.137,13.28,0.038,156.8
2022-12-16T05:19:03,42.805,6.029,0.038,-0.02,0.035,101.0,102.0,101.0,13.4,1505.2,331.6,-0.8,1.8,2471.171,13.28,0.042,117.8
2022-12-16T05:22:03,42.805,6.029,0.027,-0.023,0.008,101.0,101.0,102.0,13.4,1505.2,316.4,-0.8,1.8,2471.162,13.29,0.035,130.4
2022-12-16T05:25:03,42.805,6.029,0.032,-0.015,0.059,102.0,100.0,101.0,13.4,1505.2,319.2,-0.8,1.8,2471.141,13.29,0.035,115.1
2022-12-16T05:28:03,42.805,6.029,0.003,-0.028,0.007,101.0,101.0,101.0,13.4,1505.2,331.1,-0.8,1.8,2471.157,13.29,0.028,173.9
2022-12-16T05:31:03,42.805,6.029,0.04,-0.024,0.04,102.0,102.0,102.0,13.4,1505.2,326.9,-0.8,1.8,2471.135,13.29,0.046,121.0
2022-12-16T05:34:03,42.805,6.029,0.02,-0.028,-0.002,101.0,102.0,101.0,13.3,1505.2,328.6,-0.7,1.8,2471.161,13.29,0.034,144.5
2022-12-16T05:37:03,42.805,6.029,0.042,-0.041,-0.01,101.0,102.0,101.0,13.3,1505.2,319.2,-0.8,1.8,2471.136,13.29,0.058,134.3
2022-12-16T05:40:03,42.805,6.029,-0.003,-0.011,0.026,101.0,102.0,101.0,13.4,1505.2,334.2,-0.7,1.8,2471.186,13.29,0.011,195.3
2022-12-16T05:43:03,42.805,6.029,0.024,-0.012,0.037,101.0,101.0,101.0,13.3,1505.2,330.8,-0.8,1.8,2471.137,13.29,0.026,116.6
2022-12-16T05:46:03,42.805,6.029,0.009,-0.037,0.019,101.0,101.0,102.0,13.4,1505.2,334.5,-0.7,1.8,2471.176,13.29,0.038,166.3
2022-12-16T05:49:03,42.805,6.029,0.002,-0.013,0.017,101.0,102.0,101.0,13.3,1505.2,323.7,-0.8,1.8,2471.134,13.29,0.013,171.3
2022-12-16T05:52:03,42.805,6.029,0.022,-0.024,0.005,102.0,101.0,102.0,13.3,1505.2,322.6,-0.7,1.8,2471.178,13.29,0.032,137.5
2022-12-16T05:55:03,42.805,6.029,0.024,-0.033,0.016,101.0,101.0,102.0,13.4,1505.2,326.6,-0.8,1.8,2471.187,13.29,0.04,144.0
2022-12-16T05:58:03,42.805,6.029,0.036,-0.024,0.013,102.0,102.0,101.0,13.3,1505.2,330.9,-0.8,1.8,2471.175,13.29,0.043,123.7
2022-12-16T06:04:03,42.805,6.029,0.017,-0.017,0.029,102.0,102.0,102.0,13.4,1505.2,325.1,-0.7,1.8,2471.2,13.28,0.024,135.0
2022-12-16T06:07:03,42.805,6.029,0.011,-0.003,0.017,101.0,102.0,102.0,13.4,1505.2,328.6,-0.8,1.8,2471.148,13.28,0.011,105.3
2022-12-16T06:10:03,42.805,6.029,0.025,-0.007,0.018,101.0,103.0,101.0,13.4,1505.2,321.6,-0.7,1.8,2471.196,13.28,0.025,105.6
2022-12-16T06:13:03,42.805,6.029,0.011,-0.034,0.001,101.0,102.0,102.0,13.4,1505.2,319.3,-0.8,1.8,2471.19,13.28,0.035,162.1
2022-12-16T06:16:03,42.805,6.029,0.018,-0.031,0.032,101.0,102.0,101.0,13.3,1505.2,331.3,-0.8,1.8,2471.198,13.28,0.035,149.9
2022-12-16T06:19:03,42.805,6.029,0.015,-0.009,0.01,101.0,101.0,101.0,13.3,1505.2,333.4,-0.8,1.8,2471.18,13.28,0.017,121.0
2022-12-16T06:22:03,42.805,6.029,-0.005,-0.027,-0.01,101.0,101.0,101.0,13.3,1505.2,322.1,-0.7,1.8,2471.171,13.29,0.027,190.5
2022-12-16T06:25:03,42.805,6.029,0.0,-0.005,-0.001,102.0,103.0,102.0,13.4,1505.2,317.8,-0.7,1.8,2471.176,13.29,0.005,180.0
2022-12-16T06:28:03,42.805,6.029,0.028,-0.037,0.029,102.0,103.0,101.0,13.3,1505.2,323.5,-0.7,1.8,2471.18,13.29,0.046,142.9
2022-12-16T06:31:03,42.805,6.029,-0.009,-0.025,0.018,102.0,102.0,102.0,13.3,1505.2,338.2,-0.8,1.8,2471.202,13.29,0.026,199.8
2022-12-16T06:34:03,42.805,6.029,0.026,-0.018,0.001,102.0,102.0,101.0,13.3,1505.2,317.0,-0.8,1.8,2471.19,13.29,0.031,124.7
2022-12-16T06:37:03,42.805,6.029,0.016,-0.029,0.006,102.0,101.0,102.0,13.4,1505.2,329.8,-0.8,1.8,2471.139,13.29,0.033,151.1
2022-12-16T06:40:03,42.805,6.029,-0.005,-0.036,-0.018,102.0,102.0,102.0,13.4,1505.2,335.0,-0.7,1.8,2471.146,13.29,0.036,187.9
2022-12-16T06:43:03,42.805,6.029,0.008,-0.025,0.022,102.0,103.0,100.0,13.4,1505.2,334.9,-0.7,1.8,2471.183,13.29,0.026,162.3
2022-12-16T06:46:03,42.805,6.029,0.007,-0.018,0.016,101.0,102.0,102.0,13.3,1505.2,329.5,-0.8,1.8,2471.204,13.29,0.019,158.8
2022-12-16T06:49:03,42.805,6.029,0.048,-0.035,0.019,102.0,102.0,102.0,13.3,1505.2,328.6,-0.8,1.8,2471.176,13.29,0.059,126.1
2022-12-16T06:52:03,42.805,6.029,0.034,-0.042,0.0,102.0,103.0,102.0,13.3,1505.2,332.6,-0.8,1.8,2471.161,13.29,0.054,141.0
2022-12-16T06:55:03,42.805,6.029,0.012,-0.033,0.029,101.0,103.0,102.0,13.4,1505.2,330.6,-0.7,1.8,2471.16,13.29,0.035,160.0
2022-12-16T06:58:03,42.805,6.029,0.016,-0.012,0.006,102.0,102.0,101.0,13.4,1505.2,322.9,-0.8,1.8,2471.17,13.29,0.02,126.9
2022-12-16T07:04:03,42.805,6.029,0.015,-0.016,0.017,102.0,103.0,101.0,13.4,1505.2,323.1,-0.8,1.8,2471.19,13.28,0.021,136.9
2022-12-16T07:07:03,42.805,6.029,0.013,-0.028,0.024,104.0,102.0,101.0,13.4,1505.2,323.7,-0.7,1.8,2471.176,13.28,0.03,155.1
2022-12-16T07:10:03,42.805,6.029,0.009,-0.018,0.042,102.0,103.0,101.0,13.3,1505.2,327.7,-0.8,1.8,2471.21,13.28,0.02,153.4
2022-12-16T07:13:03,42.805,6.029,0.011,-0.018,0.016,102.0,102.0,102.0,13.3,1505.2,319.3,-0.8,1.8,2471.188,13.28,0.021,148.6
2022-12-16T07:16:03,42.805,6.029,0.046,-0.032,0.034,102.0,102.0,102.0,13.4,1505.2,323.2,-0.8,1.8,2471.165,13.28,0.056,124.8
2022-12-16T07:19:03,42.805,6.029,0.007,-0.037,-0.003,103.0,102.0,102.0,13.4,1505.2,336.8,-0.8,1.8,2471.183,13.28,0.037,169.3
2022-12-16T07:22:03,42.805,6.029,0.023,-0.038,0.041,102.0,102.0,102.0,13.4,1505.2,331.1,-0.7,1.8,2471.198,13.28,0.044,148.8
2022-12-16T07:25:03,42.805,6.029,0.019,-0.03,0.037,102.0,102.0,102.0,13.4,1505.2,334.5,-0.8,1.8,2471.191,13.28,0.035,147.7
2022-12-16T07:28:03,42.805,6.029,0.022,-0.028,0.021,102.0,103.0,102.0,13.3,1505.2,324.9,-0.8,1.8,2471.145,13.29,0.035,141.8
2022-12-16T07:31:03,42.805,6.029,0.02,-0.025,-0.002,102.0,102.0,102.0,13.3,1505.2,322.6,-0.8,1.8,2471.182,13.29,0.032,141.3
2022-12-16T07:34:03,42.805,6.029,0.0,-0.006,0.038,101.0,103.0,102.0,13.4,1505.2,334.9,-0.8,1.8,2471.164,13.29,0.006,180.0
2022-12-16T07:37:03,42.805,6.029,0.015,-0.013,0.017,102.0,101.0,102.0,13.3,1505.2,325.7,-0.7,1.8,2471.168,13.29,0.019,130.9
2022-12-16T07:40:03,42.805,6.029,0.034,-0.019,0.014,103.0,103.0,101.0,13.4,1505.2,321.2,-0.8,1.8,2471.179,13.29,0.038,119.2
2022-12-16T07:43:03,42.805,6.029,0.028,-0.03,0.031,101.0,102.0,102.0,13.4,1505.2,333.4,-0.8,1.8,2471.16,13.29,0.041,137.0
2022-12-16T07:46:03,42.805,6.029,0.035,-0.023,0.02,102.0,102.0,102.0,13.3,1505.2,326.0,-0.8,1.8,2471.152,13.29,0.041,123.3
2022-12-16T07:49:03,42.805,6.029,0.022,0.002,0.041,102.0,102.0,101.0,13.4,1505.2,327.6,-0.7,1.8,2471.192,13.29,0.022,84.8
2022-12-16T07:52:03,42.805,6.029,-0.009,-0.027,0.006,102.0,102.0,101.0,13.4,1505.2,331.6,-0.8,1.8,2471.181,13.29,0.028,198.4
2022-12-16T07:55:03,42.805,6.029,0.022,-0.048,-0.017,102.0,102.0,101.0,13.4,1505.2,336.3,-0.8,1.8,2471.142,13.29,0.052,155.4
2022-12-16T07:58:03,42.805,6.029,0.028,-0.017,0.024,101.0,102.0,101.0,13.3,1505.2,323.5,-0.7,1.8,2471.185,13.29,0.032,121.3
2022-12-16T08:04:03,42.805,6.029,0.008,-0.017,0.013,102.0,101.0,102.0,13.3,1505.2,329.6,-0.8,1.8,2471.219,13.28,0.018,154.8
2022-12-16T08:07:03,42.805,6.029,0.03,-0.011,0.045,103.0,100.0,101.0,13.4,1505.2,325.8,-0.8,1.8,2471.202,13.28,0.031,110.1
2022-12-16T08:10:03,42.805,6.029,0.022,-0.026,0.019,102.0,103.0,102.0,13.4,1505.2,321.7,-0.8,1.8,2471.22,13.28,0.034,139.8
2022-12-16T08:13:03,42.805,6.029,0.008,-0.015,0.015,103.0,101.0,101.0,13.3,1505.2,316.4,-0.8,1.8,2471.219,13.28,0.017,151.9
2022-12-16T08:16:03,42.805,6.029,0.008,-0.033,0.0,103.0,103.0,101.0,13.4,1505.2,321.1,-0.8,1.8,2471.21,13.28,0.033,166.4
2022-12-16T08:19:03,42.805,6.029,0.021,-0.044,0.029,103.0,103.0,101.0,13.4,1505.2,329.9,-0.8,1.8,2471.214,13.28,0.048,154.5
2022-12-16T08:22:03,42.805,6.029,0.011,-0.021,0.011,102.0,103.0,100.0,13.4,1505.2,318.3,-0.8,1.8,2471.216,13.28,0.023,152.4
2022-12-16T08:25:03,42.805,6.029,0.019,-0.03,0.028,102.0,102.0,102.0,13.4,1505.2,333.8,-0.8,1.8,2471.202,13.29,0.035,147.7
2022-12-16T08:28:03,42.805,6.029,0.015,-0.028,0.022,103.0,102.0,102.0,13.3,1505.2,328.8,-0.8,1.8,2471.249,13.29,0.031,151.8
2022-12-16T08:31:03,42.805,6.029,0.021,-0.024,0.029,101.0,103.0,102.0,13.4,1505.2,321.2,-0.8,1.8,2471.255,13.29,0.031,138.8
2022-12-16T08:34:03,42.805,6.029,0.015,-0.024,0.027,103.0,102.0,101.0,13.4,1505.2,335.3,-0.8,1.8,2471.238,13.29,0.028,148.0
2022-12-16T08:37:03,42.805,6.029,0.011,-0.018,0.016,102.0,104.0,100.0,13.4,1505.2,316.4,-0.8,1.8,2471.227,13.29,0.021,148.6
2022-12-16T08:40:03,42.805,6.029,0.037,-0.017,0.029,102.0,102.0,101.0,13.4,1505.2,320.0,-0.8,1.9,2471.236,13.29,0.04,114.7
2022-12-16T08:43:03,42.805,6.029,0.039,-0.014,0.015,102.0,103.0,102.0,13.4,1505.2,326.0,-0.8,1.8,2471.2,13.29,0.041,109.7
2022-12-16T08:46:03,42.805,6.029,0.025,-0.021,0.032,102.0,102.0,103.0,13.4,1505.2,331.6,-0.8,1.8,2471.219,13.29,0.032,130.0
2022-12-16T08:49:03,42.805,6.029,0.033,-0.026,0.011,100.0,103.0,103.0,13.4,1505.2,323.2,-0.8,1.8,2471.238,13.29,0.042,128.2
2022-12-16T08:52:03,42.805,6.029,0.026,-0.045,-0.001,101.0,103.0,102.0,13.4,1505.2,336.3,-0.8,1.8,2471.257,13.29,0.051,150.0
2022-12-16T08:55:03,42.805,6.029,0.022,-0.032,0.01,101.0,102.0,102.0,13.4,1505.2,328.4,-0.7,1.8,2471.205,13.29,0.038,145.5
2022-12-16T08:58:03,42.805,6.029,0.027,-0.017,0.017,101.0,102.0,101.0,13.4,1505.2,322.6,-0.8,1.8,2471.204,13.29,0.031,122.2
2022-12-16T09:04:03,42.805,6.029,0.018,-0.01,0.022,102.0,103.0,100.0,13.4,1505.2,319.6,-0.8,1.8,2471.279,13.28,0.02,119.1
2022-12-16T09:07:03,42.805,6.029,0.034,-0.044,-0.013,102.0,102.0,102.0,13.4,1505.2,323.2,-0.8,1.9,2471.246,13.28,0.055,142.3
2022-12-16T09:10:03,42.805,6.029,0.012,-0.035,-0.011,102.0,102.0,102.0,13.4,1505.2,317.4,-0.7,1.8,2471.245,13.28,0.037,161.1
2022-12-16T09:13:03,42.805,6.029,0.041,-0.025,0.031,101.0,102.0,102.0,13.3,1505.2,322.5,-0.8,1.8,2471.263,13.28,0.048,121.4
2022-12-16T09:16:03,42.805,6.029,0.017,-0.028,0.027,102.0,101.0,103.0,13.4,1505.2,323.6,-0.7,1.8,2471.28,13.28,0.032,148.7
2022-12-16T09:19:03,42.805,6.029,0.028,-0.037,0.018,102.0,102.0,102.0,13.3,1505.2,321.2,-0.7,1.8,2471.235,13.28,0.046,142.9
2022-12-16T09:22:03,42.805,6.029,0.039,-0.017,0.007,102.0,101.0,101.0,13.3,1505.2,321.2,-0.8,1.8,2471.25,13.28,0.042,113.5
2022-12-16T09:25:03,42.805,6.029,0.024,-0.021,0.014,102.0,102.0,101.0,13.3,1505.2,329.6,-0.8,1.8,2471.272,13.28,0.031,131.2
2022-12-16T09:28:03,42.805,6.029,0.04,-0.019,0.036,101.0,103.0,102.0,13.4,1505.2,316.9,-0.8,1.8,2471.243,13.28,0.044,115.4
2022-12-16T09:31:03,42.805,6.029,0.029,-0.046,0.003,103.0,104.0,101.0,13.3,1505.2,329.7,-0.8,1.8,2471.239,13.29,0.054,147.8
2022-12-16T09:34:03,42.805,6.029,0.026,-0.029,0.045,102.0,101.0,102.0,13.3,1505.2,329.4,-0.7,1.8,2471.215,13.29,0.038,138.1
2022-12-16T09:37:03,42.805,6.029,0.008,-0.026,0.022,102.0,101.0,102.0,13.4,1505.2,326.1,-0.8,1.8,2471.233,13.29,0.027,162.9
2022-12-16T09:40:03,42.805,6.029,0.026,-0.028,0.035,101.0,102.0,101.0,13.4,1505.2,331.5,-0.8,1.8,2471.229,13.29,0.038,137.1
2022-12-16T09:43:03,42.805,6.029,0.045,-0.035,0.027,102.0,102.0,102.0,13.3,1505.2,330.6,-0.8,1.8,2471.253,13.29,0.057,127.9
2022-12-16T09:46:03,42.805,6.029,0.015,-0.009,0.026,101.0,103.0,102.0,13.4,1505.2,335.8,-0.8,1.8,2471.278,13.29,0.017,121.0
2022-12-16T09:49:03,42.805,6.029,0.008,-0.018,-0.004,102.0,102.0,102.0,13.4,1505.2,327.9,-0.8,1.8,2471.256,13.29,0.019,156.0
2022-12-16T09:52:03,42.805,6.029,0.046,-0.014,0.022,102.0,104.0,101.0,13.4,1505.2,319.6,-0.8,1.8,2471.259,13.29,0.048,106.9
2022-12-16T09:55:03,42.805,6.029,0.033,-0.021,0.013,102.0,102.0,102.0,13.4,1505.2,322.1,-0.8,1.9,2471.246,13.29,0.039,122.5
2022-12-16T09:58:03,42.805,6.029,0.017,-0.003,0.022,102.0,102.0,101.0,13.4,1505.2,323.6,-0.8,1.8,2471.287,13.29,0.017,100.0